Showing default

CUAVA-2, 60527

Orbit data source: Space-Track

CUAVA-2, 60527 is an Australian payload satellite in SSO that was launched on Fri, 16 Aug 2024 UTC via an FALCON 9 launch vehicle from the Air Force Western Test Range (AFWTR). Payload-class satellites include a variety of spacecraft equipped with specific instruments for various scientific and technological missions. These include communications satellites like Starlink; space stations such as the ISS; scientific satellites like the Hubble; Earth observation satellites from companies like Planet Labs, Umbra, and HawkEye 360; GPS; miniature CubeSats for education and research; and military/defense satellites.

Loading next visibility...
Identifier
60527, 2024-149BM
Orbit
SSO
Country
Flag of AUAU / AUS
Related business
Manufacturer
USYD/UNSW
Mission
Operational Amateur Technology
Bus & Motor
CUBESAT 6U, Unknown motor
Mass
10 kg wet, 10 kg dry
Launch date (UTC)
2024-08-16 (2 years ago)
Launch vehicle
FALCON 9
Launch site
Air Force Western Test Range (AFWTR)
Object type
Payload
Rocket body
Debris
Shape & HBR
Box, 0.1 m
Radar Cross Section
0.080 m², Medium (>0.1 m² and < 1m²)

Expand to show TLE details & history
Last TLE update: 12 hours ago

TLE from 12 hours ago
0 CUAVA-2
1 60527U 24149BM  26171.47044082  .00010003  00000-0  28589-3 0  9995
2 60527  97.3722 252.9954 0005196 279.3263  80.7394 15.36179506102671
Epoch: 2026-06-20T11:17Z
TLE epoch observation values (Epoch: 2026-06-20T11:17:26.086Z)
Latitude
0.00002°
Longitude
174.95211°
Altitude
459.963 km
Speed
7.637 km/s
True Right ascension
16h 51m 58s
True Declination
0° 00' 00"
Sunlit
Object was in full shadow at epoch
Visualization orbit readout
Latitude
Unknown
Longitude
Unknown
Altitude
Unknown
Speed
Unknown
Apparent Right ascension
Unknown
Apparent Declination
Unknown
Sunlit
N/A
Visualization observer readout
Local Sidereal Time
10:18:48
Azimuth
Unknown
Elevation
Unknown
Doppler factor
Unknown
Orbital elements
Apogee altitude
457.912 km
Perigee altitude
450.812 km
Semi-major axis
6,832.499 km
Eccentricity
0.00052
Inclination
97.3722°
RAAN
252.9954°
Arg. of periapsis
279.3263°
True anomaly
80.79817°
Mean anomaly
80.7394°
Eccentric anomaly
80.76879°
Mean motion
3.84303 °/min
Orbital period
93.68 mins
BSTAR
0.00028589
Loading maneuver chart data...
Computing Atmospheric mass density...
Loading historical data...
Loading historical data...
Loading historical data...
Loading historical data...
Loading historical data...
Loading historical data...
Loading historical data...

Documentation

Showing up to 5 results
|